Location: Fernhill
(41.0167°S, 175.6333°E)
Time: 23:46:25
(UTC+00:00)

Cosmos 2297 - Pass Details

Date: 08 November 2025
Orbit: 836 x 856 km, 71.0° (Epoch: 04 December)

Event Time Altitude Azimuth Distance (km) Brightness Sun altitude
Rises 07:44:52 0° 208° (SSW) 3,450 8.0 -7.3°
Reaches altitude 10° 07:47:21 10° 211° (SSW) 2,511 7.3 -7.7°
Maximum altitude 07:53:02 60° 289° (WNW) 984 4.3 -8.7°
Drops below altitude 10° 07:58:39 10° 7° (N) 2,489 5.8 -9.6°
Sets 08:01:07 0° 11° (N) 3,419 6.5 -9.9°
Enters shadow 08:01:09 - 11° (N) 3,428 6.5 -10.0°
